Regional Weather Roundup
Issued by NWS Grand Forks, ND

Home | Current Version | Previous Version | Graphics & Text | Print | Product List | Glossary On
Versions: 1 2 3 4 5 6 7 8 9 10 11 12 13 14 15 16 17 18 19 20 21 22 23 24 25 26 27 28 29 30 31 32 33 34 35 36 37 38 39 40 41 42 43 44 45 46 47 48 49 50
000
ASUS43 KFGF 200331
RWRFGF
PRAIRIE TO PINES  WEATHER ROUNDUP
NATIONAL WEATHER SERVICE EASTERN NORTH DAKOTA/GRAND FORKS ND
1000 PM CDT THU OCT 19 2017

 **SATELLITE DATA USED TO AUGMENT SKY COVER AT AUTOMATED STATIONS**
 *****  WEATHER ACROSS EASTERN NORTH DAKOTA  *****

CITY           SKY/WX    TMP DP  RH WIND       PRES   REMARKS
GRAND FORKS    FAIR      53  41  63 S7        29.70S
GRAND FRKS AFB FAIR      56  40  56 SW8       29.70S
DEVILS LAKE    FAIR      51  40  65 SE3       29.70F
FARGO          FAIR      61  45  55 SE8       29.75F
WAHPETON ARPT  NOT AVBL
$$

 ***** WEATHER ACROSS CENTRAL AND WESTERN NORTH DAKOTA  *****

CITY           SKY/WX    TMP DP  RH WIND       PRES   REMARKS
BISMARCK       FAIR      51  40  65 SE8       29.69F
MINOT          FAIR      58  35  42 SE6       29.63F
JAMESTOWN      FAIR      52  41  66 S9        29.72F
MINOT AFB      FAIR      47  33  58 SE8G17    29.61F
GARRISON         N/A     52  38  58 S3        29.66S
WILLISTON      FAIR      43  34  70 CALM      29.60F
DICKINSON      FAIR      53  29  39 S12       29.65F
HETTINGER      FAIR      55  26  32 SE5       29.69F
$$

 *****  OTHER AIRPORT OBSERVATIONS IN OUR AREA  *****

CITY           SKY/WX    TMP DP  RH WIND       PRES   REMARKS
WALHALLA       FAIR     N/A N/A N/A S10       29.65F
GRAFTON AIRPOR FAIR      48  39  71 S9        29.71S
VALLEY CITY AR FAIR      50  43  76 S10       29.75S
CANDO          FAIR      43  37  81 S7        29.70S
CAVALIER APRT  FAIR      52  37  58 CALM      29.67S
GWINNER        CLEAR     46  43  87 CALM      29.76S
SHEYENNE NWR     N/A     55  46  70 S7        29.95S
ROLLA          FAIR      54  32  43 SW13      29.67F
 ***** THE ABOVE OBSERVATIONS ARE NON NWS ARE NOT QUALITY
       CONTROLLED AND MAY MIS-REPORT RAIN FOR SNOW...
$$

  *****  WEATHER ACROSS NORTHERN MINNESOTA  *****

CITY           SKY/WX    TMP DP  RH WIND       PRES   REMARKS
FLAG ISLAND    FAIR      52  46  82 S6        29.72S
WARROAD        FAIR      55  43  62 S5        29.75S
ROSEAU         FAIR      52  43  71 S9        29.73F
HALLOCK        FAIR      52  36  54 SE9       29.69S
THF RVR FALLS  FAIR      56  41  57 S6        29.76R
BAUDETTE       FAIR      57  39  51 S7        29.76R
WASKISH        FAIR      61  37  41 S8        29.78S
CROOKSTON      FAIR      57  43  58 S10       29.73F
STEPHEN NDAWN    N/A     57  39  51 S10         N/A
GREENBUSH NDAW   N/A     45  36  70 S5          N/A
$$
  *****  WEATHER ACROSS CENTRAL AND WEST MINNESOTA  *****

CITY           SKY/WX    TMP DP  RH WIND       PRES   REMARKS
FOSSTON        FAIR      55  39  54 S13       29.78S
BEMIDJI        FAIR      59  40  48 S9        29.80S
PARK RAPIDS    FAIR      56  42  59 S7        29.83S
ELBOW LAKE     FAIR      55  46  70 E9        29.83S
WADENA         FAIR      55  43  62 S8        29.83F
DETROIT LAKES  FAIR      55  43  62 SE7       29.81F
MOORHEAD       FAIR      55  46  71 SE8       29.77S
FERGUS FALLS   FAIR      57  46  67 S10       29.82R
MORRIS MN      FAIR      55  46  71 SE9       29.82S
STAPLES        FAIR      55  39  54 S6        29.85F
$$
  *****  WEATHER ELSEWHERE ACROSS MINNESOTA  *****

CITY           SKY/WX    TMP DP  RH WIND       PRES   REMARKS
DULUTH         FAIR      58  35  42 SW9       29.91S
INTRNTL FALLS  FAIR      55  35  47 VRB5      29.80S
ELY            FAIR      57  32  38 S8        29.88S
CLOQUET        FAIR      57  30  35 CALM      29.91S
WHEATON        FAIR      55  45  67 SE8       29.81S
BRAINERD       FAIR      59  38  45 S14       29.88S
HIBBING        FAIR      42  34  73 CALM      29.88S
ALEXANDRIA     FAIR      61  45  55 S13       29.86S
SAINT CLOUD    FAIR      54  41  61 SE7       29.89S
MINNEAPOLIS    FAIR      58  39  49 SE8       29.94S
$$

  *****  WEATHER ACROSS SOUTH DAKOTA  *****

CITY           SKY/WX    TMP DP  RH WIND       PRES   REMARKS
SIOUX FALLS    FAIR      65  52  62 S13       29.88S
BROOKINGS      FAIR      60  49  66 S14       29.86S
WATERTOWN      FAIR      56  49  77 SE9       29.82F
HURON          FAIR      62  49  62 S14G22    29.79S
SISSETON         N/A     67  50  54 S16G24    29.77F
ABERDEEN       FAIR      54  46  74 S9        29.75F
MITCHELL       FAIR      65  49  56 S15       29.82S
PIERRE         FAIR      63  44  50 SE10      29.70F
MOBRIDGE       FAIR      58  42  55 E12       29.67F
RAPID CITY     FAIR      56  24  29 SE3       29.71F
$$

  *****  SOME WEATHER IN NEARBY STATES *****

CITY           SKY/WX    TMP DP  RH WIND       PRES   REMARKS
GLASGOW MT     FAIR      58  29  33 SE13      29.52F
GREAT FALLS MT FAIR      59  21  23 S10       29.49F
CHEYENNE WY    FAIR      48  29  47 W8        29.94F
SCOTTSBLUFF NE FAIR      55  32  41 E9        29.83S
OMAHA NE       FAIR      66  51  58 S12       29.97S
DES MOINES IA  FAIR      63  52  67 S8        30.03R
DAVENPORT IA   FAIR      59  51  75 S8        30.12S
CHICAGO IL     MOCLDY    54  38  54 S6        30.15F
EAU CLAIRE WI  FAIR      57  35  43 S9        29.99S
LA CROSSE WI   FAIR      58  42  55 S7        30.03S
$$

  *****  SOME NATIONAL WEATHER *****

CITY           SKY/WX    TMP DP  RH WIND       PRES   REMARKS
LA GUARDIA NY  FAIR      65  46  50 SW9       30.08F
RALEIGH NC     FAIR      50  49  96 CALM      30.23S
ATLANTA GA     FAIR      60  46  59 CALM      30.26R
NEW ORLEANS LA FAIR      72  68  87 E10       30.16R
OKLAHOMA CITY  MOCLDY    62  51  67 S8        30.08R
ALBUQUERQUE NM LGT RAIN  58  51  78 SE8       30.12R
SALT LAKE CITY MOCLDY    61  36  39 SE9       29.80F
LOS ANGELES CA FAIR      66  61  84 SE6       29.88R
BOISE ID       FAIR      61  14  16 CALM      29.57F
SEATTLE WA     LGT RAIN  50  48  93 SE10      29.51S
$$

*** WEATHER ACROSS MANITOBA...SASKATCHEWAN AND ONTARIO ***
                ***ONTARIO***

CITY           SKY/WX    TMP DP  RH WIND       PRES   REMARKS
GERALDTON      PTCLDY    34  28  80 SW5       29.92S
THUNDER BAY    CLEAR     39  34  81 CALM      29.90F
SIOUX LOOKOUT  MOCLDY    48  32  53 S6        29.77F
TORONTO        PTCLDY    50  34  53 W9        30.09S
BIG TROUT LK   CLOUDY    34 N/A N/A CALM      29.85S
PICKLE LAKE    NOT AVBL
DRYDEN         CLEAR     52  32  46 S10       29.76S
KENORA         PTCLDY    55  37  50 S9        29.73F
$$
                *** MANITOBA***

CITY           SKY/WX    TMP DP  RH WIND       PRES   REMARKS
BRANDON        CLEAR     41  28  60 N6        29.61S
DAUPHIN        CLEAR     63  36  36 SW14      29.56R
ISLAND LAKE    PTCLDY    39  32  75 E12       29.75F
PILOT MOUND      N/A     46  34  61 S12         N/A
THE PAS        MOCLDY    41  36  81 SE8       29.57S
THOMPSON       MOCLDY    36  32  87 E7        29.73
WINNIPEG       CLEAR     55  37  50 S14       29.65S
LYNN LAKE      CLOUDY    32  32 100 SE9       29.66S WCI  24
CHURCHILL      CLOUDY    32  27  80 E8        29.90R WCI  25
GILLAM         CLOUDY    34  32  93 E5        29.83R
$$
                ***SASKATCHEWAN***

CITY           SKY/WX    TMP DP  RH WIND       PRES   REMARKS
ESTEVAN        CLEAR     46  30  53 S9        29.58F
KINDERSLEY     CLOUDY    52  34  50 SE6       29.42F
LLOYDMINSTER   CLOUDY    46  36  66 SE8       29.39F
PRINCE ALBERT  MOCLDY    41  32  70 E7        29.52R
REGINA         MOCLDY    52  27  37 E8        29.53F
YORKTON        CLEAR     52  32  46 S8        29.54S
N. BATTLEFORD  MOCLDY    54  34  47 E13       29.44S
LA RONGE       MOCLDY    39  36  87 E7        29.54S
SASKATOON      MOCLDY    52  39  62 S7        29.47S
SWIFT CURRENT  CLEAR     54  25  32 S13       29.46F
$$
NOTE: THESE ARE AUTOMATED STATIONS WITH LIMITED QUALITY CONTROL
      "FAIR" INDICATES FEW OR NO CLOUDS BELOW 12,000 FEET WITH NO
      SIGNIFICANT WEATHER AND/OR OBSTRUCTIONS TO VISIBILITY.
      SKY/WX - SKY CONDITION AND SIGNIFICANT WEATHER.
      TMP - AIR TEMPERATURE.    DP   - DEWPOINT TEMPERATURE.
      RH  - RELATIVE HUMIDITY.  PRES - PRESSURE.
      HX  - HEAT INDEX.         WCI  - WIND CHILL INDEX.
$




USA.gov is the U.S. government's official web portal to all federal, state and local government web resources and services.